Weather History for Fayetteville, AR

Change the Weather History Date:

Tuesday, January 21, 2014

  Actual Average Record
Temperature  
Mean Temperature 28 °F 36 °F  
Max Temperature 40 °F 47 °F 71 °F (1957)
Min Temperature 16 °F 25 °F -4 °F (1984)
Degree Days  
Heating Degree Days 37 29  
Month to date heating degree days 673 627  
Since 1 July heating degree days 2500 2310  
Moisture  
Dew Point 7 °F    
Average Humidity 52    
Maximum Humidity 74    
Minimum Humidity 29    
Precipitation  
Precipitation 0.00 in 0.09 in 0.74 in (1952)
Month to date precipitation 1.64 1.95  
Year to date precipitation 1.64 1.95  
Sea Level Pressure  
Sea Level Pressure 30.30 in    
Wind  
Wind Speed 14 mph (NNW)    
Max Wind Speed 29 mph    
Max Gust Speed 37 mph    
Visibility 10 miles    
Events      
T = Trace of Precipitation, MM = Missing Value Source: NWS Daily Summary

Daily Weather History Graph

Daily Weather History Graph

Search for Another Location

Airport:

Trip Planner

Search our weather history database for the weather conditions in past years. The results will help you decide how hot, cold, wet, or windy it might be!

Date:

Astronomy

Jan. 21, 2014 Rise Set
Actual Time 7:24 AM CST 5:32 PM CST
Civil Twilight 6:56 AM CST 5:59 PM CST
Nautical Twilight 6:25 AM CST 6:30 PM CST
Astronomical Twilight 5:54 AM CST 7:01 PM CST
Moon 10:53 PM CST (1/21) 10:05 AM CST (1/21)
Length of Visible Light 11h 03m
Length of Day
10h 07m
Waning Gibbous, 74% of the Moon is Illuminated
Jan 21
Waning Gibbous
Jan 23
Last Quarter
Jan 30
New
Feb 6
First Quarter
Feb 14
Full

Hourly Weather History & Observations

Time (CST) Temp. Windchill Dew Point Humidity Pressure Visibility Wind Dir Wind Speed Gust Speed Precip Events Conditions
12:53 AM 37.0 °F 27.4 °F 18.0 °F 46% 30.17 in 10.0 mi NW 17.3 mph 25.3 mph N/A   Clear
1:53 AM 33.1 °F 20.1 °F 16.0 °F 50% 30.19 in 10.0 mi NNW 25.3 mph 33.4 mph N/A   Clear
2:53 AM 28.0 °F 13.9 °F 14.0 °F 56% 30.23 in 10.0 mi NNW 23.0 mph 36.8 mph N/A   Clear
3:53 AM 24.1 °F 9.8 °F 12.0 °F 60% 30.27 in 10.0 mi NNW 19.6 mph 29.9 mph N/A   Clear
4:53 AM 21.0 °F 6.6 °F 10.9 °F 65% 30.29 in 10.0 mi NNW 17.3 mph 28.8 mph N/A   Clear
5:53 AM 18.0 °F 2.6 °F 10.0 °F 71% 30.32 in 10.0 mi NNW 17.3 mph 26.5 mph N/A   Clear
6:53 AM 16.0 °F 0.1 °F 8.1 °F 71% 30.38 in 10.0 mi NNW 17.3 mph 25.3 mph N/A   Partly Cloudy
7:53 AM 16.0 °F 3.6 °F 8.1 °F 71% 30.40 in 10.0 mi North 10.4 mph - N/A   Scattered Clouds
8:53 AM 17.1 °F 3.6 °F 8.1 °F 68% 30.40 in 10.0 mi NNW 12.7 mph - N/A   Clear
9:53 AM 19.0 °F 6.8 °F 6.1 °F 57% 30.42 in 10.0 mi NNE 11.5 mph 19.6 mph N/A   Clear
10:53 AM 19.9 °F 8.6 °F 6.1 °F 55% 30.42 in 10.0 mi North 10.4 mph - N/A   Clear
11:53 AM 21.9 °F 11.7 °F 3.0 °F 44% 30.40 in 10.0 mi North 9.2 mph - N/A   Clear
12:53 PM 24.1 °F 13.1 °F 1.9 °F 38% 30.36 in 10.0 mi NNW 11.5 mph - N/A   Clear
1:53 PM 26.1 °F 16.8 °F 1.0 °F 34% 30.32 in 10.0 mi NW 9.2 mph - N/A   Clear
2:53 PM 27.0 °F 23.0 °F -0.0 °F 31% 30.31 in 10.0 mi Variable 3.5 mph - N/A   Clear
3:53 PM 27.0 °F 23.0 °F -2.9 °F 27% 30.28 in 10.0 mi North 3.5 mph - N/A   Clear
4:53 PM 27.0 °F - -2.0 °F 29% 30.27 in 10.0 mi Calm Calm - N/A   Clear
5:53 PM 23.0 °F - 1.9 °F 40% 30.27 in 10.0 mi Calm Calm - N/A   Clear
6:53 PM 21.0 °F - 3.9 °F 48% 30.25 in 10.0 mi Calm Calm - N/A   Clear
7:53 PM 18.0 °F - 6.1 °F 60% 30.27 in 10.0 mi Calm Calm - N/A   Clear
8:53 PM 18.0 °F - 7.0 °F 62% 30.26 in 10.0 mi Calm Calm - N/A   Clear
9:53 PM 17.1 °F 10.0 °F 8.1 °F 68% 30.25 in 10.0 mi South 4.6 mph - N/A   Clear
10:53 PM 17.1 °F - 8.1 °F 68% 30.25 in 10.0 mi Calm Calm - N/A   Clear
11:53 PM 17.1 °F - 9.0 °F 71% 30.21 in 10.0 mi Calm Calm - N/A   Clear